Theta_e
343 343 343 342 342 341 342 342 342 343 343 342 342 341 340 340 339 338 337 338 340 338 339 339 340 342 343 342 342 343 343 343 343 344 343 343 343 338 335 336 338 337 334 331 332 336 336 336 337 338 336 337 340 342 342 342 341 341 338 336 340 341 340 339 335 334 335 336 337 337 337 338 337 333 326 329 339 340 338 339 338 339 340 340 341
344 344 343 343 343 343 343 343 343 342 340 339 340 342 343 342 342 342 340 341 342 340 340 340 340 342 344 343 342 342 342 343 343 344 344 344 344 340 336 336 337 338 338 333 330 334 337 336 337 338 335 335 338 341 341 341 341 341 339 336 338 341 341 340 338 337 338 339 339 339 339 339 339 336 328 325 336 341 340 341 340 341 341 341 341
344 344 344 344 344 344 344 343 342 341 339 338 339 341 343 343 342 342 342 342 343 342 341 340 339 341 344 344 342 341 342 343 343 344 344 345 344 341 337 336 337 339 339 337 332 330 335 336 337 337 336 334 335 339 339 339 341 341 339 337 337 340 340 340 340 339 340 340 340 340 340 340 340 340 335 328 330 335 337 338 339 339 338 337 335
344 344 344 344 344 344 344 343 342 341 340 340 341 343 344 344 343 343 343 344 343 343 342 341 339 339 342 344 344 341 341 342 343 343 344 344 344 342 339 336 336 338 339 339 336 330 330 335 336 336 336 335 333 336 337 337 339 340 339 338 337 339 340 340 339 339 339 339 340 340 340 341 341 341 340 337 333 332 332 331 331 331 331 330 329
346 346 345 344 343 343 344 344 343 343 343 342 343 345 346 345 344 343 344 344 343 343 343 342 340 339 340 343 344 342 342 343 343 344 343 343 344 343 341 337 336 338 338 339 338 334 329 331 333 333 333 333 333 335 336 336 337 338 338 338 337 337 338 340 339 339 339 339 339 339 339 340 342 342 341 341 340 338 337 334 332 331 330 330 331
347 347 346 346 345 345 345 346 345 346 345 345 346 346 346 346 345 344 344 344 343 344 344 344 341 340 341 343 344 343 342 344 344 344 344 343 343 344 343 341 338 337 338 339 339 338 333 330 330 331 331 330 330 333 335 336 336 336 336 337 337 335 334 336 336 337 338 339 339 339 339 339 340 342 342 342 342 341 341 340 338 336 335 334 334
347 347 347 347 347 347 347 347 347 347 346 345 346 347 347 347 346 345 344 344 344 344 345 344 342 342 343 343 344 343 342 344 344 344 344 343 342 343 343 342 341 339 337 338 339 339 338 334 330 328 328 328 327 330 333 334 335 335 334 334 334 332 331 331 332 332 333 334 335 337 339 340 340 340 341 341 341 342 342 342 341 340 339 338 337
348 347 347 347 348 348 348 348 348 348 346 346 346 347 347 346 346 345 344 344 344 344 344 344 343 344 345 344 344 343 343 344 344 344 344 343 343 343 343 342 342 341 338 338 338 339 339 338 335 330 326 326 327 329 331 332 335 335 332 331 332 331 329 328 328 329 329 329 330 332 334 338 339 339 340 340 340 340 341 342 342 342 341 341 340
347 348 348 348 348 347 348 347 346 346 345 345 346 346 346 345 344 344 344 344 343 344 344 344 343 345 346 345 345 345 344 344 344 344 344 343 342 342 343 342 343 343 341 339 338 338 338 339 339 336 330 326 325 327 328 328 333 335 333 332 332 333 332 329 327 327 327 327 327 328 329 332 334 335 337 338 339 338 338 339 340 341 342 341 341
347 348 348 348 348 348 348 347 346 346 345 345 345 345 345 344 344 344 344 344 343 343 344 344 344 346 347 346 346 346 344 344 344 343 343 343 342 342 342 343 343 343 343 342 339 337 338 338 339 339 336 332 327 326 326 326 329 331 333 332 331 333 334 330 328 327 327 327 327 327 327 328 329 330 332 333 336 335 335 337 338 338 339 340 340
348 349 349 349 349 348 348 348 347 346 346 345 345 344 344 344 345 345 345 344 343 344 345 345 346 347 347 346 346 346 344 343 343 343 343 343 342 342 342 343 343 344 344 344 343 340 339 337 338 338 338 337 334 330 327 325 326 327 329 329 327 330 332 331 329 328 329 330 330 330 328 328 328 328 330 331 332 332 333 335 336 337 337 338 340
349 350 350 349 349 348 348 347 347 347 347 346 345 345 345 345 345 345 345 344 344 345 345 346 347 348 347 346 346 346 344 343 344 344 344 344 343 342 343 344 345 345 345 345 345 344 342 340 338 337 337 338 338 336 332 328 325 325 326 326 326 326 327 328 329 329 329 329 331 332 331 333 333 329 328 330 331 332 333 333 333 334 335 335 336
350 350 350 350 349 349 348 348 348 347 347 347 346 346 346 346 346 345 344 344 344 345 345 347 348 348 347 347 346 346 345 344 344 345 344 344 343 343 344 345 346 346 345 346 346 346 345 343 340 338 337 337 338 338 337 335 330 326 325 325 325 326 325 326 326 327 327 326 326 330 332 337 340 335 329 328 330 331 333 333 333 333 333 333 333
350 350 350 350 349 349 348 348 348 348 348 347 348 347 346 346 346 345 345 345 346 345 345 347 348 347 347 348 347 345 344 344 344 345 344 344 344 344 344 345 347 346 345 345 347 347 347 345 342 341 339 337 337 337 338 338 335 331 327 325 324 324 325 325 325 325 326 325 324 327 330 335 340 341 335 330 330 333 333 333 335 335 334 333 333
350 350 350 350 350 349 349 349 348 348 348 347 348 347 347 346 346 346 346 345 347 346 346 347 347 347 348 349 348 345 344 344 344 345 345 345 345 345 345 346 348 347 346 345 346 348 348 347 346 344 342 339 338 337 337 338 337 335 332 329 325 323 323 323 323 323 325 325 324 328 332 334 338 342 340 333 331 335 335 334 334 336 336 335 334
350 350 350 349 348 348 348 349 348 348 348 348 348 347 347 347 346 346 347 346 347 346 345 346 346 347 349 349 347 346 345 344 344 344 345 345 345 346 346 347 348 347 346 345 346 347 347 348 347 346 345 344 342 340 338 337 337 337 336 334 332 329 327 326 325 326 328 328 328 331 335 337 338 340 340 336 332 335 337 337 336 336 336 337 337
350 350 349 348 348 348 348 349 349 348 348 347 348 348 347 347 346 347 347 346 346 345 345 345 344 346 347 347 347 347 346 344 344 344 344 344 345 346 347 347 348 346 346 346 346 347 347 348 348 348 347 346 346 344 340 337 337 338 337 337 336 335 334 333 332 333 334 335 335 336 337 338 339 338 338 338 336 337 339 340 338 337 337 337 337
350 350 349 349 348 348 348 348 349 349 348 347 348 348 347 347 347 347 347 346 346 346 345 344 343 344 345 346 347 347 346 345 344 345 345 344 345 347 347 347 347 346 346 347 347 347 347 348 348 349 349 347 347 346 343 339 337 337 337 337 337 338 338 337 337 337 337 337 337 338 338 338 338 338 338 338 338 339 341 341 340 339 338 337 337
349 349 349 349 348 347 347 347 348 348 348 348 348 348 348 348 348 348 347 346 347 347 345 344 344 344 345 346 347 347 347 346 345 345 345 346 346 346 347 347 346 346 347 347 347 347 347 348 348 349 349 349 348 347 347 344 340 338 338 337 338 338 338 338 338 338 338 338 338 338 338 339 338 338 337 337 337 337 339 341 340 339 338 337 338
348 349 349 348 348 347 347 347 349 349 348 348 348 348 348 348 348 347 347 347 347 347 345 345 345 344 345 347 347 347 348 347 347 346 346 346 347 347 347 346 346 346 347 347 346 346 347 347 348 349 349 349 349 348 348 348 346 343 340 339 339 340 340 339 339 338 338 338 338 338 338 338 339 338 337 337 337 337 337 338 338 338 339 338 338
348 349 349 349 348 347 347 347 348 348 348 348 348 348 348 348 347 347 347 348 348 346 346 346 346 345 346 348 347 347 347 347 348 348 347 347 347 347 347 346 346 347 346 346 346 346 346 347 348 348 349 349 349 349 349 349 349 346 342 341 341 343 343 342 341 340 339 338 338 338 338 338 339 338 338 338 337 337 338 338 339 340 340 339 338
348 348 348 348 348 348 347 347 347 348 348 348 348 347 347 347 346 347 347 348 348 347 346 346 347 346 347 347 347 347 347 347 348 348 348 348 348 347 347 346 345 347 347 346 347 346 346 348 348 347 348 348 349 349 349 349 349 348 346 344 343 344 345 344 343 341 339 338 338 337 337 337 338 338 338 338 337 337 338 339 340 341 341 340 338
348 348 348 347 348 348 348 348 348 348 348 348 348 348 347 346 346 347 348 348 349 348 347 347 348 348 347 347 347 347 347 347 348 348 347 348 348 347 346 345 345 346 347 347 347 347 347 347 348 347 347 348 348 348 349 349 349 349 349 347 345 344 345 344 344 343 341 339 339 338 337 337 337 337 337 338 337 337 338 339 340 341 341 341 340
346 347 346 346 347 348 349 349 349 349 348 348 347 347 346 345 346 348 349 349 349 348 347 347 348 348 347 347 348 349 348 347 347 347 347 347 348 347 345 345 346 346 346 347 347 347 346 347 347 347 347 347 347 347 348 349 349 348 349 349 346 345 346 346 346 345 342 340 340 339 338 337 337 337 337 338 338 338 338 339 340 340 341 342 341
344 345 345 345 346 347 348 348 348 348 348 347 347 346 346 345 346 347 349 349 349 348 347 348 348 348 348 348 349 349 348 348 347 347 347 347 347 347 345 345 346 347 347 346 347 347 346 346 347 347 347 347 347 347 348 348 348 348 348 349 348 347 347 348 348 346 343 339 337 337 337 338 337 338 338 338 338 338 338 338 339 340 341 342 342
344 345 346 347 347 347 346 345 346 347 348 347 346 346 345 345 346 347 349 349 349 349 348 348 348 347 347 348 348 348 347 347 347 347 347 347 347 346 346 346 346 347 347 346 346 347 347 346 346 346 347 347 347 347 348 348 348 348 348 348 349 348 348 348 348 347 344 340 337 336 336 335 336 337 337 338 338 338 338 338 339 339 340 341 341
344 346 347 348 347 345 343 342 344 347 348 348 346 346 345 345 346 347 348 349 349 349 349 348 348 347 347 347 347 347 347 347 347 347 346 346 346 346 347 347 346 347 346 346 346 346 346 346 346 346 347 347 347 347 347 348 348 348 348 348 349 349 347 347 346 345 343 341 339 338 335 334 333 334 335 336 336 337 337 337 337 338 339 340 340
345 346 348 348 346 345 344 343 345 346 346 347 347 346 345 345 346 347 348 349 349 349 349 349 348 348 348 348 347 347 348 347 347 347 346 346 347 348 347 347 347 347 347 347 347 347 346 346 346 346 347 347 347 347 347 348 348 348 348 348 349 349 348 348 348 347 346 343 341 339 336 333 333 333 333 333 333 334 335 336 336 337 338 338 337
346 347 348 348 346 345 345 345 345 346 346 347 347 347 346 346 346 346 347 348 349 349 349 349 349 348 347 348 348 347 347 347 347 347 347 347 348 348 347 347 347 347 347 348 348 347 346 346 346 347 346 346 346 347 347 347 348 348 347 348 349 349 349 349 350 350 349 346 342 339 336 334 333 334 333 333 332 332 332 333 334 335 335 335 334
346 347 348 348 346 345 343 342 344 346 347 347 347 347 346 346 345 345 346 347 348 349 348 349 349 348 347 347 349 348 348 348 348 348 348 348 348 348 347 347 347 347 347 348 348 347 347 347 347 347 347 347 346 347 346 347 347 347 348 348 349 349 349 349 350 349 349 347 343 339 337 335 335 334 334 333 333 331 330 330 332 333 333 333 333
346 346 346 346 346 345 344 343 344 346 347 346 347 347 347 346 345 345 346 346 347 348 348 348 349 349 348 347 349 350 349 348 348 348 348 348 348 348 347 346 346 346 347 347 347 347 347 348 348 348 348 347 347 347 347 347 347 347 348 348 349 349 348 348 349 349 349 347 343 340 338 337 336 336 335 335 334 333 331 329 329 331 331 332 333
347 346 345 344 344 345 346 345 345 345 345 345 346 346 347 347 346 345 345 345 346 347 348 348 349 350 349 347 347 350 350 350 349 349 349 349 349 349 347 346 346 346 347 347 348 348 348 348 348 348 348 348 347 346 347 348 348 348 348 348 349 349 349 349 349 349 349 347 345 342 341 341 340 339 337 336 335 334 332 330 329 330 332 333 333
348 348 346 345 344 344 344 345 345 346 345 345 345 345 346 347 347 347 345 345 346 347 348 348 349 350 349 347 347 348 349 350 350 349 349 349 349 349 348 346 346 346 346 347 348 348 348 347 348 348 347 347 347 347 347 348 348 348 348 349 349 349 349 349 349 349 349 348 348 347 346 346 346 344 342 339 336 335 334 332 330 330 332 333 333
349 349 347 347 347 346 344 344 346 347 346 345 345 345 345 345 346 347 347 345 345 346 347 348 348 349 350 350 348 348 348 349 350 349 349 349 349 349 349 348 347 347 346 346 346 346 346 346 347 348 347 347 347 347 348 348 348 348 348 349 349 350 349 349 350 349 349 349 349 349 348 348 348 347 345 341 336 334 333 333 332 332 333 334 333
348 348 348 347 347 346 345 345 346 347 347 346 345 345 345 345 345 345 346 345 345 346 347 347 347 348 349 350 350 350 350 349 349 349 349 349 349 349 349 349 348 348 347 346 346 346 346 346 347 347 347 348 347 347 348 348 348 348 348 348 349 349 349 349 349 350 349 349 349 349 348 348 347 347 345 342 337 334 333 333 333 333 333 333 333
347 347 347 347 346 346 345 345 346 347 347 347 346 345 345 346 346 345 345 345 345 346 346 346 347 348 349 349 349 351 350 349 349 349 349 349 349 349 349 349 348 348 347 346 346 346 346 347 347 346 347 347 348 348 348 348 349 348 348 348 348 348 348 348 348 349 349 349 349 348 347 347 347 348 347 346 343 338 334 333 333 333 333 333 333
348 347 346 345 345 345 344 345 346 347 347 348 347 346 345 345 346 346 345 345 345 345 345 345 346 347 348 348 348 349 349 349 350 350 349 349 349 349 349 349 349 348 348 347 347 346 346 346 346 346 347 347 348 348 348 348 349 349 348 348 348 348 348 347 348 349 349 350 349 349 349 348 348 348 349 350 349 347 342 337 335 333 334 334 334
348 348 347 346 346 345 345 345 346 347 348 348 347 347 346 345 345 346 346 346 345 345 345 344 343 344 346 347 347 349 348 349 351 351 350 349 349 348 349 348 348 348 348 348 347 346 345 345 345 346 347 347 347 347 348 348 348 348 348 348 348 348 348 348 348 348 349 350 349 349 349 349 348 348 349 349 350 350 349 347 343 340 337 336 335
348 348 347 347 347 346 346 345 345 346 347 347 348 347 346 346 346 345 345 346 346 345 345 345 343 343 344 346 348 349 348 348 349 350 350 350 349 349 348 348 348 348 347 348 347 346 345 345 344 345 346 347 346 347 347 348 348 348 348 348 349 349 348 349 349 348 348 349 350 349 349 350 350 350 349 349 350 350 350 351 350 348 346 343 340
348 348 347 347 348 347 346 345 344 343 344 344 346 345 344 344 345 345 344 344 345 345 345 345 344 344 344 346 348 349 347 347 348 349 350 350 350 349 348 348 348 348 348 347 347 346 346 345 344 344 344 345 346 347 347 348 348 349 349 349 350 349 349 349 349 348 348 348 349 349 349 349 350 350 350 350 350 350 350 350 350 350 350 349 348
347 348 348 348 347 346 345 344 342 341 340 341 342 343 344 343 341 341 342 344 344 345 345 344 344 345 345 345 347 347 347 347 347 349 349 349 350 349 349 348 348 347 347 347 347 347 346 346 345 344 343 344 346 347 347 348 347 348 349 350 350 350 350 350 350 349 349 348 349 348 348 348 348 348 349 349 349 349 349 349 349 349 349 349 350
344 346 348 347 345 344 342 341 341 342 342 341 342 343 344 345 343 340 339 342 344 344 345 345 344 345 345 345 346 346 346 347 347 347 348 349 349 349 349 349 348 347 346 345 346 347 346 345 345 345 345 345 346 347 347 347 347 348 349 350 351 351 351 351 351 350 350 350 350 349 348 347 347 346 346 347 348 349 349 349 348 348 348 349 349
341 344 345 344 341 341 342 342 343 343 343 342 343 343 344 345 346 345 343 342 343 344 344 344 343 343 344 344 345 345 346 346 346 346 347 348 349 349 349 349 347 346 345 344 344 345 345 345 345 346 346 346 345 346 346 346 346 347 348 349 350 351 351 352 351 350 349 349 350 350 349 348 348 348 347 347 347 347 347 347 347 347 348 348 349
340 342 343 342 338 338 340 343 344 344 343 342 342 342 343 343 345 347 347 345 343 343 343 343 342 341 341 341 342 343 345 346 346 345 345 345 346 347 347 347 346 345 345 345 345 344 344 344 344 345 347 347 347 346 346 346 346 346 346 347 349 350 350 350 350 350 349 349 350 350 349 349 349 349 348 348 347 347 347 347 347 347 347 347 347
337 339 341 341 339 338 339 340 342 343 343 343 343 343 344 343 344 346 347 346 344 343 344 344 343 342 341 340 340 341 342 343 345 345 344 344 344 345 345 345 345 344 345 345 346 346 345 344 344 344 345 346 348 348 347 347 347 346 346 347 347 348 348 349 349 349 349 349 349 350 349 349 349 349 349 348 348 348 348 348 347 347 347 347 346
335 336 337 339 340 341 341 341 342 343 344 344 345 345 345 345 345 345 346 346 346 345 345 345 344 342 341 341 341 340 339 341 342 343 343 343 344 345 345 344 343 343 344 345 346 347 346 346 345 344 344 345 346 347 348 348 347 346 346 346 346 347 347 348 348 348 348 348 348 350 349 347 347 349 348 346 345 346 346 346 347 347 347 347 346
334 333 334 337 339 340 342 343 343 344 344 345 345 345 345 345 345 346 345 345 345 345 346 345 344 343 342 341 340 339 338 339 340 340 341 343 345 346 346 345 345 345 345 344 345 345 346 346 346 345 345 346 346 347 348 349 349 348 348 347 348 348 348 348 348 348 348 347 347 348 348 345 344 347 347 344 343 343 342 343 344 344 345 346 346
332 334 335 336 337 338 340 341 342 342 343 344 345 345 345 344 344 345 345 344 344 344 344 344 344 344 344 343 342 341 340 339 340 340 341 343 344 346 347 347 347 347 346 344 343 345 346 346 346 346 346 346 347 347 347 349 349 349 348 348 348 348 347 347 347 346 345 345 345 346 346 344 342 344 344 342 342 342 341 341 341 341 342 343 343
331 335 336 335 335 336 337 338 340 340 341 342 344 345 345 345 344 344 343 342 342 343 343 344 344 344 345 345 344 343 342 341 341 342 343 344 344 343 344 345 345 345 343 341 342 345 346 345 344 345 346 346 346 347 348 348 348 348 348 348 347 347 346 347 346 344 343 344 344 345 347 345 343 344 344 343 343 344 343 342 341 341 341 341 341
328 330 333 333 332 333 334 336 337 338 339 341 342 343 344 345 344 343 343 343 343 343 343 344 344 345 345 345 345 344 343 342 342 343 344 345 344 343 342 342 342 342 340 339 341 344 344 342 342 342 345 347 347 348 347 347 347 347 347 346 345 345 346 347 346 346 346 346 345 346 348 347 344 344 346 345 345 345 344 343 343 342 342 342 342
328 327 329 331 331 330 332 334 336 337 337 338 340 342 342 344 345 344 344 344 344 343 343 343 343 344 345 345 345 344 343 343 343 343 344 344 343 342 343 342 342 341 339 340 343 343 340 339 338 339 342 345 347 348 347 347 347 347 346 346 345 346 346 346 347 347 347 346 342 344 346 346 344 344 345 347 347 345 342 342 342 341 341 341 342
Wind_Speed
22 21 21 22 21 21 20 20 19 18 18 18 18 18 18 18 18 17 16 14 12 10 10 10 11 11 9 8 7 7 8 8 6 5 5 6 5 5 4 5 5 4 4 6 7 7 7 7 6 6 6 6 6 6 5 4 3 3 3 4 7 8 8 8 8 9 10 10 10 9 9 8 7 5 7 10 11 10 11 11 11 11 11 11 10
21 21 22 22 22 22 22 21 20 19 19 18 18 18 18 18 17 16 14 13 12 11 10 10 10 10 10 9 8 7 7 8 8 6 6 6 5 5 5 6 5 4 4 5 6 7 8 7 6 6 6 5 6 6 5 4 4 3 3 3 7 8 8 8 9 9 10 9 9 9 9 8 7 6 6 9 11 11 11 11 11 11 11 11 10
20 21 23 23 24 24 24 23 21 21 20 19 18 17 17 18 18 17 15 13 13 13 12 12 11 10 10 10 9 7 7 8 8 8 7 6 5 5 6 6 6 5 4 4 5 7 8 8 7 7 6 6 6 6 6 5 5 4 3 3 6 9 9 8 9 9 9 9 9 8 8 8 7 7 7 8 10 10 11 11 11 11 11 11 10
20 21 23 24 25 25 24 24 23 22 21 21 19 17 17 18 18 18 16 15 15 15 15 16 15 13 12 12 12 10 8 8 9 10 9 7 6 7 7 7 7 7 5 5 5 5 7 8 8 8 7 7 7 6 6 6 6 5 4 4 6 8 9 9 9 9 9 9 9 8 8 8 7 7 7 8 8 8 8 9 9 10 10 10 10
21 21 23 24 25 25 24 24 23 23 22 21 20 18 18 18 19 18 18 18 19 18 17 17 16 15 14 14 14 12 10 9 10 12 11 8 8 8 9 8 8 8 7 6 6 5 6 7 8 8 8 7 7 7 6 6 7 7 6 5 5 7 8 9 9 9 9 8 9 9 8 8 7 7 7 7 7 7 7 7 8 8 9 9 9
21 21 22 23 24 24 24 24 23 23 23 22 20 19 18 18 18 19 19 21 21 19 18 17 16 15 14 14 14 12 11 10 11 14 14 10 9 10 11 10 9 10 9 8 7 6 6 6 7 8 8 8 7 7 7 6 7 7 7 6 6 7 8 8 8 8 8 8 8 8 9 8 8 8 8 7 7 7 7 7 7 7 8 8 8
20 21 21 21 21 21 22 23 22 23 23 23 21 20 19 18 18 18 19 20 20 19 17 16 15 14 13 13 13 12 12 12 13 15 15 13 11 11 12 12 10 10 11 10 9 8 7 7 7 8 8 8 8 7 7 7 7 7 7 7 7 7 7 8 8 8 7 7 8 8 8 8 8 8 8 8 8 8 8 8 7 7 7 7 8
20 21 21 20 19 19 19 19 20 22 22 22 22 22 20 18 18 18 18 18 18 17 15 14 13 11 11 13 13 13 13 14 15 16 16 16 15 13 13 13 11 10 11 11 11 10 9 9 8 8 8 9 9 8 8 7 8 8 7 7 7 7 8 7 7 7 7 7 7 7 7 7 7 8 8 8 8 9 9 9 8 8 8 8 8
19 20 20 20 19 18 17 18 19 21 22 22 22 21 20 19 18 17 17 16 16 15 14 13 11 10 11 14 14 13 14 15 15 16 16 17 16 14 14 13 11 10 10 11 12 12 11 10 10 9 9 10 10 10 9 8 8 9 9 8 8 8 8 7 7 6 6 6 6 6 6 6 6 7 7 8 9 9 10 10 10 9 9 9 9
18 19 20 20 19 18 18 18 19 21 22 22 21 21 20 19 18 17 16 16 15 14 12 11 9 10 11 13 14 13 14 15 15 15 15 15 16 14 14 13 10 9 9 10 11 12 13 12 12 11 11 10 11 11 11 10 9 9 10 10 9 9 8 7 6 6 5 5 5 5 5 6 6 6 7 7 7 7 8 9 10 11 11 11 11
17 18 19 19 19 18 18 18 20 21 22 22 22 21 20 19 18 17 16 16 14 12 11 9 9 10 11 11 12 13 14 15 14 15 14 13 14 14 13 12 9 8 8 9 11 12 13 14 14 13 13 12 11 11 12 12 11 10 10 10 9 9 9 8 7 6 6 5 5 5 5 6 6 6 7 7 7 6 7 8 9 10 11 12 12
16 18 19 19 18 18 18 18 19 21 22 22 21 19 19 18 17 16 16 16 14 12 11 10 10 12 12 10 11 12 13 15 14 13 13 11 10 12 12 10 8 8 8 8 10 11 13 14 15 15 14 14 13 12 12 12 13 12 11 11 10 10 9 9 9 8 8 7 6 6 6 6 6 6 7 7 7 7 7 7 7 8 9 10 11
15 16 17 17 18 17 18 18 19 21 22 21 20 18 18 18 17 16 16 16 15 12 11 11 12 13 13 12 12 13 14 15 15 13 12 10 8 10 11 9 9 9 9 9 9 10 12 13 14 15 15 15 14 14 14 13 13 14 14 13 12 12 11 11 11 10 10 9 9 8 8 8 7 7 7 8 8 7 7 7 7 7 7 8 9
14 14 15 16 17 17 17 18 18 20 21 20 19 19 19 18 17 17 16 16 14 12 12 13 14 14 13 12 13 14 15 15 15 13 12 12 10 9 10 10 10 10 11 10 9 10 11 12 12 13 14 15 15 15 15 15 14 14 14 15 15 15 14 13 13 13 12 12 11 10 9 9 9 8 8 8 8 7 7 7 7 7 7 7 7
14 14 14 15 16 17 16 17 18 19 20 20 20 20 20 19 19 18 16 17 15 14 15 15 15 14 13 13 13 13 15 16 16 14 12 13 11 11 12 12 12 11 12 12 10 10 10 11 12 12 13 14 15 16 16 16 15 15 15 15 16 16 16 16 15 15 14 13 12 11 11 10 10 10 10 9 9 8 7 8 8 8 7 7 7
14 14 15 15 16 17 16 17 18 18 19 20 20 20 20 20 20 19 17 18 17 17 17 17 16 15 13 14 12 12 14 16 17 16 14 14 14 14 15 14 13 11 12 13 11 11 11 11 12 12 12 12 13 15 17 17 16 16 16 16 16 16 16 16 16 15 14 14 13 12 12 11 11 11 10 10 11 11 9 9 9 8 8 8 7
14 15 16 16 16 16 17 18 19 18 18 19 20 20 20 20 20 20 19 19 18 17 18 18 18 17 15 14 11 11 14 16 16 17 17 17 16 16 17 16 14 13 14 15 14 14 13 13 12 11 12 12 11 12 15 17 18 17 17 18 18 18 17 17 16 16 15 15 14 14 13 12 12 11 11 12 12 13 12 11 10 9 9 8 8
15 15 16 16 16 16 17 18 18 17 17 18 19 19 20 21 21 20 20 19 18 17 18 19 18 18 18 16 11 8 10 14 16 16 18 18 17 16 18 17 16 15 15 16 16 15 15 15 13 12 12 12 12 11 12 15 18 19 18 18 18 19 19 19 18 18 17 17 16 16 15 14 13 13 13 13 14 14 14 13 12 11 10 9 9
14 15 15 15 15 15 16 17 17 16 16 17 18 19 20 21 21 20 20 19 18 18 19 20 19 20 19 17 14 9 9 13 16 16 16 18 18 18 18 17 17 16 16 17 16 15 16 18 17 14 13 13 12 12 11 12 14 17 18 18 18 19 19 19 19 19 19 18 18 18 17 16 15 15 15 14 14 14 14 14 12 11 11 11 10
13 14 14 14 14 15 15 16 17 16 16 16 17 18 20 22 21 20 21 20 19 19 20 20 21 21 20 18 16 13 12 14 14 14 15 16 17 18 18 17 16 16 17 17 16 15 16 17 17 16 15 14 14 13 13 12 12 15 18 18 18 19 20 20 20 19 19 19 19 19 18 18 17 17 16 15 15 14 14 13 13 12 12 12 11
13 13 12 13 13 14 14 14 16 16 15 16 16 17 19 21 21 20 21 20 20 20 20 21 21 21 20 19 18 15 15 16 14 13 15 15 15 16 17 17 17 17 17 16 16 16 16 16 16 16 16 16 15 14 14 13 12 14 17 18 18 19 19 19 20 20 20 20 20 20 19 19 19 18 17 16 16 15 14 14 13 13 13 12 12
13 12 11 11 12 13 13 13 14 15 15 15 16 17 19 20 21 21 21 20 21 21 20 21 21 21 20 19 18 17 17 18 17 14 14 15 15 15 15 16 18 18 17 16 17 17 16 15 15 16 17 17 16 15 15 14 12 12 14 16 17 18 18 18 18 19 20 21 21 21 20 20 19 19 18 17 16 16 15 15 14 14 13 13 12
12 11 10 10 12 13 13 13 13 14 14 14 16 17 19 20 21 21 20 20 21 21 21 22 21 20 20 19 18 18 19 20 19 18 16 16 17 15 14 15 17 18 16 16 17 17 16 15 15 15 16 17 17 16 16 15 13 12 12 13 16 18 18 17 17 18 19 20 20 21 21 20 20 19 18 18 17 17 16 16 15 15 14 14 13
13 12 10 10 11 12 13 13 14 14 13 13 15 16 18 20 22 22 21 20 20 21 21 23 23 21 20 20 18 18 21 21 20 19 18 17 16 14 12 12 15 16 15 15 17 19 19 18 16 16 16 18 19 18 17 16 14 12 12 12 14 17 18 17 16 17 18 19 19 20 20 20 20 20 19 18 18 18 17 17 16 16 15 15 14
14 12 10 9 10 11 11 12 13 13 12 12 13 15 17 20 22 23 21 20 20 20 21 24 24 23 21 20 19 18 21 21 21 20 19 17 16 14 11 12 13 13 12 12 14 17 19 19 18 18 17 19 19 19 18 17 15 13 13 12 12 15 18 17 16 16 16 17 18 18 19 20 20 20 20 19 19 18 18 17 17 17 16 16 15
14 12 10 9 10 11 11 12 12 12 11 11 12 14 17 19 21 22 21 21 20 20 22 24 25 25 23 22 21 19 20 21 21 21 19 18 17 15 12 12 13 13 12 12 13 15 17 18 19 19 19 19 19 19 18 18 16 14 14 14 12 13 16 17 17 16 16 16 16 17 18 18 19 19 19 19 19 19 19 18 18 18 17 16 15
12 12 11 11 11 11 11 11 10 10 10 11 13 15 17 20 21 22 22 21 22 22 22 24 25 26 24 24 23 20 19 20 21 22 20 18 17 16 14 13 13 13 13 13 14 15 15 15 17 19 20 20 20 20 19 18 18 16 16 16 14 12 13 14 14 14 14 15 16 17 17 18 18 18 18 19 19 19 19 19 18 18 17 17 16
11 10 10 11 12 10 10 9 8 8 9 11 14 16 18 20 22 23 22 22 23 23 23 24 25 25 25 25 24 22 19 19 21 23 21 19 17 16 15 14 14 14 14 14 15 14 13 14 15 17 19 20 20 19 19 19 18 17 17 18 16 13 11 11 11 12 13 14 16 17 17 17 17 17 18 18 18 19 19 18 18 17 17 17 17
11 10 10 11 12 11 10 10 9 8 9 10 13 17 19 21 22 23 23 22 23 24 25 25 24 25 26 25 24 23 21 19 20 22 22 20 18 17 17 16 15 16 16 16 16 14 13 13 15 15 17 19 19 18 18 19 19 18 18 18 17 15 13 12 13 13 13 14 15 16 17 17 17 17 18 18 18 18 18 18 17 17 18 17 17
12 11 11 11 13 12 11 11 10 9 9 9 11 15 19 22 22 23 23 23 23 25 26 26 25 25 26 26 24 24 24 22 21 22 21 19 18 18 18 18 18 18 18 18 17 15 13 13 14 15 16 17 18 18 18 19 19 19 18 18 17 15 13 14 15 15 15 15 16 16 17 17 17 17 18 18 18 18 17 17 17 18 18 17 17
12 12 11 11 12 12 12 12 11 10 11 10 11 14 18 21 23 24 24 23 24 25 26 27 26 26 26 27 26 24 24 24 23 22 22 20 19 18 19 20 19 19 18 19 19 17 14 13 13 13 15 16 17 18 18 19 19 20 19 18 17 15 14 14 15 16 16 16 16 16 16 16 16 17 18 18 18 18 17 17 17 18 17 17 17
13 12 13 12 12 11 12 13 13 12 11 11 11 13 15 18 21 23 24 24 24 24 24 26 26 27 27 27 27 25 24 23 23 23 22 20 19 17 17 18 18 17 16 17 18 17 15 14 13 12 13 15 16 17 18 19 19 19 20 19 18 16 16 16 16 17 17 15 15 14 14 14 15 15 16 17 18 18 18 18 18 18 18 18 18
13 14 14 14 13 12 13 13 13 12 12 11 11 12 14 15 18 20 22 24 24 23 24 26 27 28 27 27 27 25 24 25 24 22 21 19 18 17 17 17 17 16 16 18 18 18 16 16 15 14 13 14 15 17 17 19 20 20 20 20 18 18 19 19 18 18 17 16 14 14 14 14 14 15 15 16 17 18 19 19 19 19 19 19 19
13 14 14 14 14 14 14 14 13 13 12 11 11 12 12 14 16 19 21 23 23 23 24 26 28 29 28 27 26 24 24 26 25 22 20 19 18 18 18 19 18 18 18 20 21 21 19 17 17 16 16 16 16 16 17 17 19 21 22 21 19 19 21 21 20 19 18 17 17 16 16 17 16 16 16 17 17 18 19 19 20 20 20 20 20
13 14 15 14 14 15 15 15 15 14 13 13 12 12 12 13 15 18 21 22 23 24 24 25 27 30 30 28 26 25 23 25 26 24 22 20 19 19 20 21 21 20 18 19 22 23 21 18 18 19 18 18 17 16 17 17 16 18 21 23 22 22 22 22 22 21 20 19 19 19 19 19 19 17 16 16 16 17 18 19 20 20 21 21 21
13 13 14 15 15 15 15 15 16 15 15 14 13 12 12 12 14 16 19 22 23 24 24 25 26 28 30 29 28 27 24 23 25 26 25 23 21 21 22 22 22 21 18 16 19 22 22 21 21 20 20 19 17 15 17 19 18 17 19 21 23 23 23 23 24 24 22 20 20 20 20 20 19 17 16 15 16 16 17 19 20 20 21 21 21
13 14 14 15 15 16 16 15 16 16 16 15 14 13 12 13 14 15 17 21 23 23 24 25 26 26 27 28 28 28 26 24 23 25 26 26 24 24 25 24 24 23 21 18 18 19 21 23 24 23 21 20 18 17 17 19 21 20 19 20 22 22 22 23 24 25 25 23 22 21 21 20 20 19 18 18 18 18 18 18 20 20 21 21 22
12 13 14 15 15 16 16 15 16 16 16 16 16 15 14 13 14 14 16 19 21 22 23 24 25 25 26 27 27 28 28 27 25 24 25 27 27 27 28 27 27 27 26 25 22 20 20 22 24 25 23 21 21 20 18 18 20 22 22 21 22 22 23 23 23 24 25 26 25 24 23 23 22 22 21 21 21 21 20 20 20 21 22 22 22
12 12 13 14 14 15 15 16 16 16 16 16 16 16 15 15 15 14 16 18 20 21 22 22 23 24 26 26 27 28 28 28 27 26 25 26 27 28 29 29 29 29 29 29 27 24 21 21 22 24 25 24 24 23 20 18 19 21 22 22 23 23 24 24 24 24 25 27 28 27 27 26 25 25 24 24 24 24 24 23 23 24 24 24 24
13 12 12 12 13 14 15 15 15 16 17 17 17 16 15 15 16 15 15 17 19 21 22 23 23 24 25 26 27 29 29 28 28 27 27 27 27 27 28 29 30 30 30 31 31 28 24 21 22 23 24 25 26 24 22 20 20 21 22 23 24 25 25 26 26 25 25 26 28 29 29 29 29 29 29 29 29 29 28 28 28 28 27 27 27
14 13 12 11 11 13 14 14 15 16 17 17 18 17 17 16 17 17 17 18 19 20 22 23 23 23 25 26 27 28 28 27 28 28 28 29 28 28 28 28 29 30 30 31 31 30 27 23 21 21 22 24 25 25 23 22 23 22 22 24 26 27 27 27 28 26 25 25 27 29 30 31 32 33 33 33 33 33 33 33 33 32 32 31 30
13 14 13 11 12 13 14 14 15 16 18 18 18 18 18 18 18 19 20 20 21 21 22 23 24 25 25 26 26 26 26 27 28 29 29 29 29 29 29 29 29 29 30 31 31 31 31 28 22 20 22 24 25 25 25 24 23 23 23 24 26 27 27 28 29 28 27 27 28 30 30 30 31 32 33 34 35 34 35 36 36 35 35 34 33
12 11 11 11 13 15 16 16 16 16 17 17 18 18 19 19 19 20 20 20 21 23 23 24 25 25 26 26 26 26 26 27 27 28 29 29 30 29 29 29 29 29 30 30 30 31 32 31 26 21 21 24 24 25 25 24 23 24 24 25 26 27 28 29 31 30 29 27 28 30 30 28 28 30 32 33 34 34 36 37 37 37 36 36 36
12 11 10 11 14 14 16 18 18 17 17 16 17 18 19 19 20 21 21 21 22 23 25 25 25 25 26 26 26 26 27 27 27 27 28 29 29 29 29 29 30 30 29 30 30 30 30 30 28 25 23 23 24 24 25 24 24 24 25 26 27 27 28 30 32 33 31 28 28 31 32 30 29 31 32 32 32 33 34 35 35 36 36 37 37
12 11 10 12 14 15 16 17 17 17 17 16 16 18 19 19 19 21 23 24 24 24 24 26 26 27 27 26 26 27 27 27 27 27 28 28 28 28 28 28 29 28 28 28 30 31 31 31 30 29 27 25 24 24 23 23 24 24 25 26 27 28 29 31 32 33 32 30 30 32 34 34 33 33 35 35 33 33 34 34 34 34 35 36 36
12 12 11 11 13 14 15 15 16 16 15 15 15 17 19 20 20 21 23 25 26 25 25 25 27 28 28 28 28 27 27 27 27 28 29 28 27 26 26 27 27 26 26 27 28 30 32 32 33 33 32 30 28 26 24 24 25 26 26 28 28 29 30 31 32 33 32 31 31 31 35 37 36 35 38 38 36 36 36 36 35 35 35 35 35
12 12 12 12 12 13 14 15 15 16 15 14 15 16 17 18 19 21 23 24 25 26 26 26 27 28 29 30 30 29 27 27 28 29 30 30 28 26 26 27 27 25 24 25 26 27 29 30 32 33 33 33 32 30 28 28 29 30 30 30 30 31 32 33 35 37 37 37 35 34 38 41 40 39 42 42 41 41 41 40 40 39 38 37 37
14 14 13 12 12 14 14 14 15 16 16 15 15 14 15 16 18 20 22 23 24 26 26 27 28 28 29 30 31 31 30 29 29 29 30 30 30 30 30 29 27 26 26 25 25 26 26 27 29 30 30 31 32 32 32 31 32 31 31 31 32 33 34 36 39 41 41 40 39 37 39 43 42 42 44 45 44 45 45 44 44 43 42 41 40
16 16 14 12 13 14 15 15 15 16 16 16 15 14 14 16 18 20 21 22 23 25 26 27 28 28 28 29 30 31 31 31 30 29 29 30 31 33 33 32 30 30 29 28 27 27 26 26 26 26 26 27 29 30 31 31 31 30 30 32 34 34 34 36 38 41 40 39 38 36 37 41 42 41 42 43 43 44 45 45 44 44 44 44 44
17 17 15 14 14 15 16 17 16 17 17 16 15 15 14 15 18 21 22 23 24 24 25 26 27 27 27 27 28 30 31 31 30 29 29 30 31 33 33 32 31 31 31 30 29 28 27 26 26 26 25 25 27 28 29 29 29 29 30 33 34 33 33 35 37 38 39 38 38 36 36 40 42 40 40 41 42 43 43 43 43 43 42 43 44
15 16 17 17 16 16 17 17 17 17 17 16 15 15 15 15 17 20 22 24 24 24 25 26 27 26 26 26 27 29 31 31 30 30 30 31 32 33 31 31 32 33 32 31 30 28 28 29 29 27 26 27 27 28 28 28 28 29 31 33 33 32 34 36 35 36 38 39 37 35 36 38 39 38 38 38 40 42 42 41 42 42 42 42 42
Wind_Direction
240 239 239 240 241 241 245 245 247 254 259 264 267 268 268 269 270 273 277 278 277 278 284 294 301 298 280 258 248 251 251 246 240 239 257 258 248 244 247 253 244 235 233 228 227 222 213 205 203 207 202 193 190 194 195 185 182 167 140 168 177 167 161 157 152 150 152 157 162 163 164 161 159 162 182 189 185 182 183 182 180 178 182 185 187
240 240 240 241 242 244 247 248 250 256 261 266 268 268 270 272 274 278 281 280 280 282 281 285 294 293 282 271 254 240 239 239 240 246 255 253 243 242 244 245 238 228 230 233 230 224 217 213 209 208 207 203 200 202 201 195 190 172 145 164 178 173 168 165 162 160 161 164 165 165 166 162 155 143 147 173 182 180 179 179 179 181 186 189 194
241 241 241 242 244 245 248 250 253 257 261 266 268 269 271 272 275 278 279 276 279 279 276 279 286 288 281 273 259 240 229 231 243 249 246 242 238 243 242 238 235 224 222 234 236 228 222 222 218 210 210 211 209 207 201 195 195 184 161 162 172 172 171 172 174 173 173 173 172 170 169 163 159 149 136 150 169 177 181 183 184 187 192 195 198
242 243 243 244 245 247 249 251 254 255 259 263 265 269 272 272 272 273 271 268 272 275 274 276 278 281 276 267 267 257 232 227 244 247 239 234 232 240 239 232 233 227 219 227 240 237 227 224 218 212 215 213 211 211 201 192 194 193 177 165 167 169 170 175 178 179 180 182 181 179 176 174 169 161 151 145 151 162 172 179 183 187 189 188 185
244 245 245 245 246 248 249 250 252 253 255 257 257 260 264 264 264 265 264 264 270 273 274 274 272 277 274 264 265 255 232 226 240 243 238 230 226 237 241 235 234 233 226 222 230 238 232 227 217 211 213 211 210 211 206 195 190 190 182 169 164 166 167 171 175 177 180 182 184 184 184 185 181 172 167 161 156 157 160 166 173 178 180 180 180
245 246 245 244 245 247 248 248 248 249 250 250 248 251 255 254 252 254 257 261 268 272 274 273 270 275 272 261 257 243 226 222 229 237 237 231 225 233 241 240 238 238 234 227 227 232 233 231 224 217 211 206 206 208 209 203 194 189 181 173 168 164 161 163 166 168 172 176 178 182 184 187 189 185 179 176 173 172 169 166 169 171 175 179 182
245 246 245 245 246 248 249 248 246 247 248 246 243 247 250 248 246 248 252 259 264 267 269 269 268 269 264 257 249 230 218 215 219 230 235 238 237 236 240 242 243 242 238 233 230 230 231 231 230 225 214 204 201 203 207 206 201 193 183 180 174 165 160 157 158 159 161 164 167 172 178 183 190 191 189 190 188 184 182 178 176 174 174 176 176
247 246 246 246 249 250 249 248 247 247 246 242 241 245 247 247 246 245 249 255 259 262 262 260 259 257 258 253 238 221 214 212 215 224 231 238 245 242 237 241 248 246 240 238 235 232 233 232 229 228 220 211 204 203 205 205 203 199 193 189 182 175 171 163 157 155 154 153 154 158 164 172 181 188 190 195 199 197 194 191 189 186 185 183 179
245 242 244 247 250 250 246 243 244 245 243 240 240 242 245 245 245 245 248 250 252 254 252 248 245 245 251 242 228 217 211 211 215 223 230 239 248 245 232 235 247 248 245 244 239 233 232 232 232 230 226 221 215 212 211 207 205 204 203 200 192 188 185 176 167 163 160 157 153 153 157 164 171 178 184 190 196 200 199 197 197 199 198 196 194
240 240 245 249 252 250 245 242 244 244 242 241 241 241 243 244 245 246 245 244 244 244 243 239 233 237 241 232 228 220 207 207 214 220 230 244 252 243 226 230 244 251 252 247 240 236 232 231 232 230 228 225 222 220 220 218 214 208 206 207 204 198 195 191 185 179 178 177 173 168 166 170 174 176 179 184 189 195 197 196 199 204 206 205 205
242 244 248 251 251 250 247 246 247 245 243 242 241 241 242 243 244 242 239 237 234 232 233 227 222 228 228 226 232 227 208 204 211 219 232 249 251 235 223 230 243 252 256 248 241 241 237 232 231 232 232 228 225 223 223 224 224 219 212 210 209 207 205 204 205 205 206 209 207 203 190 182 185 187 188 186 185 189 192 194 198 204 208 209 210
251 251 251 253 253 251 248 248 250 248 245 244 243 242 243 243 243 238 232 228 223 220 220 214 217 225 223 222 230 229 215 206 210 222 231 241 233 219 221 232 245 255 259 253 245 243 240 237 234 234 235 233 230 227 225 226 226 226 224 219 216 215 216 217 221 226 229 233 229 223 215 200 198 201 200 198 194 192 191 194 199 204 209 211 213
257 257 256 257 257 254 250 250 252 250 247 245 245 244 243 241 238 231 224 220 214 209 207 207 216 222 221 224 223 218 213 207 211 223 231 233 219 209 222 240 253 261 261 259 252 245 243 241 237 236 237 236 235 233 230 229 227 227 227 227 225 223 225 226 229 233 236 241 239 233 224 216 214 215 212 210 206 202 199 200 203 208 209 210 213
258 261 262 263 262 259 254 251 251 250 249 246 244 242 239 235 228 220 214 212 206 198 200 205 212 214 217 232 229 212 207 204 210 222 229 230 225 226 237 249 258 265 266 265 258 248 243 242 241 240 239 237 237 237 234 234 232 229 228 229 230 229 229 231 234 237 239 243 244 239 231 225 223 225 223 220 214 211 211 210 211 213 213 214 217
259 264 268 269 268 265 261 256 252 251 252 250 246 242 237 230 220 212 208 208 203 195 199 202 207 212 221 238 239 221 213 207 208 217 224 226 233 241 245 250 260 269 270 265 258 253 248 243 242 243 241 240 240 240 238 239 238 236 233 231 231 231 232 233 235 238 239 241 243 240 236 232 228 229 230 227 223 221 221 219 220 221 221 222 225
263 266 267 269 271 268 265 262 257 254 254 252 248 243 236 227 217 209 206 209 204 197 200 200 201 209 220 229 233 233 227 215 209 213 218 229 239 241 244 248 253 263 265 258 258 260 259 253 246 243 244 244 245 245 242 241 241 239 238 237 235 235 235 235 236 238 240 241 242 241 241 240 237 234 234 233 229 228 229 228 228 227 227 228 230
268 267 267 269 270 268 267 264 260 258 256 252 248 243 234 225 219 211 208 210 206 198 200 200 197 201 208 213 221 235 232 218 213 215 218 226 235 236 239 243 247 254 255 253 258 263 263 260 253 246 245 245 249 252 248 243 242 240 240 239 239 239 239 239 240 241 242 243 245 246 245 245 243 240 237 236 233 232 234 236 235 231 230 230 232
271 272 271 270 269 268 267 265 263 262 259 253 246 240 230 223 220 216 213 210 206 201 200 197 195 198 201 205 208 223 231 219 213 217 220 225 230 228 231 238 245 252 249 248 254 258 259 260 258 254 249 247 252 258 257 249 243 241 241 242 242 243 243 243 243 243 244 245 247 249 249 247 245 242 238 236 235 234 235 238 238 236 235 233 232
271 274 271 268 269 269 268 266 263 261 257 249 242 235 226 222 220 218 216 211 208 207 198 192 194 198 201 206 209 217 236 232 224 224 225 226 227 224 226 234 241 243 243 247 252 252 253 256 258 259 253 252 255 259 264 260 250 245 244 245 245 246 245 245 245 245 245 245 246 247 248 247 245 242 240 238 238 237 236 237 239 239 241 239 237
270 272 269 267 269 271 269 266 262 258 253 246 240 234 226 224 221 218 217 213 212 211 199 191 194 198 202 211 215 218 232 241 241 238 233 230 228 225 226 229 232 236 240 247 252 251 252 253 254 259 260 256 255 257 264 267 259 251 247 246 245 245 246 246 246 246 246 246 245 245 245 245 245 244 242 242 241 241 239 239 239 240 240 241 241
271 269 268 268 270 273 272 269 263 255 251 247 239 232 227 225 221 216 215 213 213 214 203 192 193 198 204 212 217 221 228 236 242 241 236 237 235 231 232 230 230 235 239 243 247 251 254 252 251 258 262 259 256 257 261 265 262 254 252 250 247 245 246 246 245 244 245 245 246 246 245 245 245 245 244 244 244 243 242 241 241 240 240 243 244
272 262 260 265 270 274 277 276 268 257 251 248 239 232 227 223 218 215 214 211 214 216 206 195 194 200 205 210 216 225 229 228 230 232 235 239 239 240 242 236 232 234 238 241 247 252 252 250 252 256 258 257 257 257 258 260 259 258 260 258 251 246 246 247 244 243 243 245 247 247 247 247 246 247 246 246 246 246 246 244 244 243 242 244 244
269 257 254 262 268 273 278 282 276 265 257 250 241 234 228 220 215 215 214 211 214 217 209 200 199 203 207 210 218 227 229 227 228 232 236 237 237 243 246 240 235 237 242 243 246 249 247 247 251 254 254 255 257 257 257 259 259 262 267 264 253 243 243 248 247 246 246 246 248 249 250 250 249 249 249 248 248 248 247 247 246 246 244 245 245
262 256 256 265 270 273 278 283 282 275 265 255 242 234 231 221 213 215 216 212 214 216 211 206 205 208 209 210 216 225 231 236 238 239 240 236 235 242 242 236 236 240 244 243 241 242 243 246 250 251 253 254 257 259 258 259 261 261 265 266 255 243 241 247 249 251 252 251 251 251 251 251 251 251 250 249 249 249 249 248 248 248 245 246 247
261 256 255 264 268 270 273 276 279 277 268 258 243 231 230 224 216 218 220 216 216 217 214 210 211 214 214 213 216 222 230 236 241 242 238 232 235 241 235 227 234 241 245 244 241 240 242 245 248 251 253 253 255 258 257 257 258 257 260 262 257 247 243 246 249 252 254 254 253 251 251 250 250 250 249 249 249 249 249 249 248 248 247 247 249
264 256 253 254 254 257 261 261 264 267 262 253 243 232 227 225 223 226 226 222 219 220 218 216 215 217 219 219 221 227 231 233 238 240 232 229 236 240 234 231 237 241 243 244 244 244 245 245 246 248 251 252 253 255 256 256 254 255 258 260 261 256 248 246 250 254 255 255 254 253 251 250 249 249 249 249 250 249 249 249 248 248 248 248 250
266 258 256 257 252 251 256 256 257 263 257 244 238 234 230 228 228 230 230 225 222 222 221 220 220 220 222 225 226 230 234 233 237 237 230 231 237 236 234 237 241 242 242 242 243 247 250 247 245 245 247 250 252 253 254 253 250 253 256 259 263 259 248 246 250 253 256 258 257 255 252 251 250 249 249 249 249 249 248 248 248 248 249 249 249
268 258 257 262 260 256 255 253 251 257 257 244 235 232 231 231 231 230 228 226 225 226 224 223 224 223 224 228 230 230 232 235 238 238 236 237 236 234 235 237 240 244 244 246 249 252 253 246 243 242 242 246 251 252 250 249 250 253 253 256 261 256 247 247 251 255 260 263 262 256 252 251 251 250 250 249 248 248 248 248 248 248 248 248 247
270 259 255 259 263 262 254 245 238 240 249 246 238 233 230 230 230 230 228 227 226 226 226 228 228 227 226 228 230 229 229 234 237 237 237 238 237 238 240 241 243 245 245 250 254 259 261 251 244 244 244 247 253 253 249 247 249 252 250 252 257 256 252 252 254 259 266 270 267 258 252 251 251 251 251 250 249 249 249 248 247 246 246 246 246
273 263 257 254 257 259 257 251 242 235 239 241 239 235 233 231 229 229 229 230 230 227 226 228 231 232 230 228 230 229 230 234 237 237 237 239 242 244 245 246 248 247 245 249 254 261 268 261 251 251 253 253 254 254 252 250 250 251 250 250 253 258 260 257 256 259 266 271 269 261 254 252 253 253 252 252 251 251 250 248 246 245 245 245 246
279 271 264 257 253 255 259 261 253 241 237 238 240 238 235 233 229 228 229 231 235 232 227 226 230 234 233 229 228 229 230 232 235 237 237 239 245 248 249 248 246 246 246 250 256 260 264 266 264 264 265 259 253 250 250 250 249 248 248 249 252 258 265 263 259 260 265 268 265 259 256 255 256 256 255 255 254 253 251 249 247 245 245 245 247
283 279 272 267 260 255 257 259 256 250 243 239 240 239 236 233 230 228 228 230 236 237 229 227 229 233 234 231 228 229 231 230 232 234 234 237 243 247 248 244 242 245 245 248 258 262 260 265 273 273 268 261 252 246 246 247 246 246 247 250 253 256 262 264 264 262 263 264 262 259 259 260 261 262 261 259 257 255 253 250 248 247 246 246 247
283 279 277 274 269 265 260 257 254 252 250 247 244 241 237 234 232 230 228 228 231 233 230 229 229 230 232 230 227 230 231 230 231 233 235 238 242 244 243 239 242 250 249 245 252 260 262 265 271 273 271 267 257 247 245 246 245 244 245 249 251 252 255 260 263 262 260 260 262 265 267 268 267 267 266 265 261 257 254 252 250 249 249 248 248
284 279 278 274 269 268 265 260 255 251 252 252 251 248 241 235 234 232 230 227 226 228 230 232 231 229 229 229 228 231 233 233 233 234 238 243 245 247 245 244 250 259 259 252 248 255 264 266 267 271 275 275 266 252 246 246 247 247 248 248 249 250 254 258 258 258 258 259 263 266 268 269 271 271 270 268 265 261 257 254 253 252 251 251 249
288 282 280 276 271 269 267 263 259 255 255 255 255 255 249 240 235 232 230 227 225 226 230 232 231 228 228 229 228 229 231 234 236 235 238 242 246 250 251 252 258 264 266 259 252 254 262 266 266 270 274 275 271 259 250 247 248 252 253 252 251 254 260 263 260 256 256 259 263 266 267 269 272 272 270 268 266 264 260 257 256 255 254 253 252
293 288 282 279 274 271 270 267 263 261 260 261 260 261 259 252 243 232 227 226 226 228 231 232 233 232 231 230 228 226 226 231 234 235 237 240 243 246 248 252 257 260 264 263 258 257 262 266 266 268 271 273 272 265 256 250 248 249 253 254 255 259 265 267 264 259 257 257 261 266 268 269 270 268 266 268 269 267 263 260 258 257 256 256 254
298 294 289 286 280 274 273 271 269 265 263 263 263 263 263 262 256 244 231 226 227 232 235 235 237 239 239 237 234 231 231 230 230 233 235 238 240 241 242 245 248 250 252 255 259 261 266 269 268 265 267 268 268 267 261 254 250 247 249 252 256 261 266 267 264 262 259 257 257 259 262 263 263 262 262 264 266 264 263 261 258 257 257 256 256
294 294 292 291 288 284 280 275 274 273 270 267 266 265 265 263 259 253 244 237 234 236 240 241 240 241 242 242 240 238 237 235 232 236 236 235 237 239 240 242 244 246 247 248 252 258 263 269 269 264 261 261 263 265 264 260 254 249 247 251 255 260 264 266 265 263 262 259 257 257 258 259 260 261 262 263 263 261 258 259 258 257 257 256 255
291 290 290 292 295 295 291 283 278 277 274 271 266 265 266 265 260 254 245 241 239 239 243 245 243 241 240 243 244 243 241 237 236 242 243 238 238 240 241 243 244 246 248 249 251 255 258 264 268 263 257 257 259 260 260 261 257 251 248 251 255 259 262 265 266 267 264 261 260 260 262 263 263 263 264 264 264 262 259 259 259 259 258 257 256
294 289 288 291 295 296 292 284 276 271 268 264 258 252 252 255 257 253 243 237 236 238 241 243 243 242 240 241 244 246 245 240 238 243 245 243 243 244 244 245 246 248 249 249 251 253 255 261 267 265 259 257 257 254 252 253 253 252 252 253 256 258 259 262 266 269 268 264 262 263 265 266 265 264 264 263 263 263 262 262 262 261 260 259 258
300 292 286 285 286 287 283 274 266 263 261 258 254 248 245 244 248 249 245 237 233 235 237 238 240 241 242 242 244 246 248 246 245 245 245 245 246 246 247 248 250 250 250 250 250 252 253 256 264 267 260 254 250 248 247 248 253 258 258 256 258 260 262 264 267 269 271 270 269 268 267 266 266 265 265 264 264 264 264 265 266 265 264 262 262
312 302 298 291 279 274 272 267 263 263 263 261 258 255 251 247 246 248 249 245 239 236 235 236 236 237 239 241 243 246 249 250 249 248 247 248 248 248 249 252 254 253 252 252 251 251 253 254 256 262 261 253 247 246 248 253 258 261 260 258 260 262 264 266 267 268 269 271 272 272 269 268 268 267 266 265 265 265 266 266 267 268 267 266 266
329 314 305 295 280 271 270 271 269 269 269 267 265 263 260 255 251 248 248 248 245 242 239 237 236 237 237 238 240 244 247 249 250 250 250 250 250 250 251 253 256 256 255 253 251 250 253 254 253 255 258 256 254 253 254 258 260 261 262 262 263 263 263 264 267 269 271 271 273 275 275 274 273 272 269 267 266 266 267 268 269 270 269 268 268
341 329 310 295 287 279 273 273 273 272 269 265 264 264 263 261 257 254 251 248 245 245 245 243 241 240 239 239 240 240 242 244 247 249 251 251 252 253 255 256 258 258 256 254 252 250 250 252 253 251 250 253 256 256 256 257 260 263 265 265 263 263 263 265 267 270 274 277 278 279 279 279 278 278 276 274 272 271 271 271 271 271 271 270 270
339 334 321 306 298 289 280 277 277 276 271 264 261 261 260 258 256 256 256 254 250 248 248 247 245 243 242 241 240 240 240 242 243 245 247 249 251 253 255 256 256 255 254 252 252 251 250 250 251 250 248 248 251 255 257 259 260 262 263 264 264 265 266 267 269 272 275 278 279 281 281 280 280 280 279 277 276 275 273 273 272 272 271 271 271
331 328 321 312 303 296 292 287 281 278 274 269 266 265 263 259 254 253 254 255 254 253 250 248 247 245 243 242 240 239 239 241 243 245 246 247 248 250 251 251 250 250 251 251 250 250 249 249 250 251 251 250 250 254 261 264 264 263 264 266 267 269 269 269 271 272 274 275 276 278 279 278 277 278 277 276 277 277 275 274 274 273 271 270 269
321 319 315 309 302 299 298 295 287 281 279 277 274 271 267 264 259 255 254 253 253 253 250 248 247 246 245 244 243 240 238 237 239 242 245 246 245 246 246 245 244 245 247 250 252 251 250 250 252 254 255 254 255 257 262 267 269 268 268 269 269 269 269 270 270 271 271 272 273 273 274 275 275 274 274 275 277 278 277 276 275 275 273 271 269
309 311 310 306 301 297 298 300 296 289 286 284 279 271 265 262 259 256 254 253 253 252 250 250 249 247 245 245 245 243 240 237 235 236 239 242 242 242 242 242 243 244 246 250 253 253 252 251 252 255 257 259 260 262 264 268 271 270 269 268 268 268 268 268 269 270 271 272 271 269 270 272 273 272 273 275 276 277 277 276 276 275 274 273 272
305 310 310 306 301 296 294 299 300 296 292 289 283 273 264 261 260 256 253 253 253 253 253 253 252 250 247 246 246 246 244 241 239 238 239 240 239 240 241 242 244 246 248 249 251 252 252 251 251 254 257 259 261 261 263 265 267 267 266 265 265 266 267 267 268 270 271 272 271 270 271 272 274 274 275 277 277 277 277 277 276 275 275 274 273
301 304 303 301 299 293 290 292 296 296 295 294 290 280 270 265 264 261 257 254 252 253 254 255 256 255 252 248 248 248 247 245 245 246 245 242 239 239 240 242 245 247 248 249 249 250 250 249 250 252 255 258 259 259 260 261 262 262 261 262 264 265 265 265 266 269 271 271 271 271 271 272 276 277 278 279 280 279 279 280 279 279 278 276 275
296 295 294 295 295 290 287 288 290 290 292 295 295 288 276 266 264 263 261 256 252 251 254 256 256 255 253 250 247 247 248 248 248 249 249 245 243 242 242 244 246 247 248 247 247 249 249 248 248 251 254 258 260 261 261 262 263 263 262 264 265 266 266 267 269 271 272 273 275 275 273 275 278 280 280 280 280 281 283 283 283 283 282 281 279